Hourly Data Report for November 06, 2005

TORONTO CITY
ONTARIO

43°40'00.000" N
79°24'00.000" W
112.50 m
6158355
71508
XTO

Download Data

Hourly Data (November 2005)
Hourly Data Report for November 6, 2005
TIME
LST
Temp Definition
°C
Dew Point Definition
°C
Rel Hum Definition
%
Precip. Amount Definition
mm

Wind Dir Definition
10's deg

Wind Spd Definition
km/h
Visibility Definition
km
Stn Press Definition
kPa
Hmdx Definition


Wind Chill Definition


Weather Definition


00:00 10.3 10.0 98   LegendMM LegendMM   99.87     LegendNANA
01:00 9.9 9.7 99   LegendMM LegendMM   99.81     LegendNANA
02:00 9.2 9.0 99   LegendMM LegendMM   99.67     LegendNANA
03:00 8.6 8.5 99   LegendMM LegendMM   99.65     LegendNANA
04:00 8.8 8.8 100   LegendMM LegendMM   99.52     LegendNANA
05:00 9.2 9.2 100   LegendMM LegendMM   99.45     LegendNANA
06:00 9.6 9.6 100   LegendMM LegendMM   99.34     LegendNANA
07:00 10.1 10.1 100   LegendMM LegendMM   99.22     LegendNANA
08:00 11.3 11.3 100   LegendMM LegendMM   99.10     LegendNANA
09:00 12.4 11.8 96   LegendMM LegendMM   99.01     LegendNANA
10:00 13.9 13.5 97   LegendMM LegendMM   98.89     LegendNANA
11:00 15.4 14.7 96   LegendMM LegendMM   98.70     LegendNANA
12:00 16.6 14.8 89   LegendMM LegendMM   98.54     LegendNANA
13:00 16.2 13.1 82   LegendMM LegendMM   98.48     LegendNANA
14:00 16.2 11.6 74   LegendMM LegendMM   98.42     LegendNANA
15:00 15.2 9.5 69   LegendMM LegendMM   98.56     LegendNANA
16:00 14.6 7.7 63   LegendMM LegendMM   98.66     LegendNANA
17:00 11.9 3.8 58   LegendMM LegendMM   98.88     LegendNANA
18:00 10.5 4.1 65   LegendMM LegendMM   99.06     LegendNANA
19:00 9.9 4.0 67   LegendMM LegendMM   99.21     LegendNANA
20:00 9.7 3.5 65   LegendMM LegendMM   99.41     LegendNANA
21:00 9.1 3.2 67   LegendMM LegendMM   99.57     LegendNANA
22:00 9.0 3.9 70   LegendMM LegendMM   99.68     LegendNANA
23:00 8.9 4.1 72   LegendMM LegendMM   99.79     LegendNANA

Notes on Data Quality.

Legend

  • E = Estimated
  • M = Missing
  • NA = Not Available*
  • [empty] = Indicates an unobserved value
Date modified: